Regional Weather Roundup
Issued by NWS

Home | Current Version | Previous Version | Graphics & Text | Print | Product List | Glossary On
Versions: 1 2 3 4 5 6 7 8 9 10 11 12 13 14 15 16 17 18 19 20 21 22 23 24 25 26 27 28 29 30 31 32 33 34 35 36 37 38 39 40 41 42 43 44 45 46 47 48 49 50
000
ASUS43 KFSD 170910
RWRSD

WEATHER ROUNDUP FOR SOUTH DAKOTA
NATIONAL WEATHER SERVICE SIOUX FALLS SD
300 AM CST SUN DEC 17 2017

NOTE: "FAIR" INDICATES FEW OR NO CLOUDS BELOW 12,000 FEET WITH NO
SIGNIFICANT WEATHER AND/OR OBSTRUCTIONS TO VISIBILITY.


SDZ001>005-009-010-012>017-171000-
NORTHWEST AND NORTH CENTRAL SOUTH DAKOTA

CITY           SKY/WX    TMP DP  RH WIND       PRES   REMARKS
BUFFALO          N/A     24  21  88 SW5       29.96F WCI  18
FAITH            N/A     24  22  91 W5        30.04S WCI  18
MOBRIDGE       CLOUDY    23  20  88 CALM      30.03S
$$

SDZ012>016-024>037-041>051-057-063-072>074-171000-
SOUTHWEST AND SOUTH CENTRAL SOUTH DAKOTA

CITY           SKY/WX    TMP DP  RH WIND       PRES   REMARKS
RAPID CTY ARPT CLOUDY    29  26  89 NW6       30.04S WCI  23
PIERRE         CLOUDY    31  30  96 CALM      30.04F
CUSTER         CLOUDY    24  18  77 N3        29.95S
ELLSWORTH AFB  CLOUDY    28  28 100 NW6       30.03  WCI  22
PHILIP         CLOUDY    31  29  92 CALM      30.05S
PINE RIDGE     CLOUDY    30  27  88 W3        30.03S
SPEARFISH      MIX PCPN  28  28 100 CALM      30.02S
WINNER         CLOUDY    29  27  92 NW3       30.04S FOG
$$

SDZ004>011-016>023-039-040-171000-
NORTHEAST SOUTH DAKOTA

CITY           SKY/WX    TMP DP  RH WIND       PRES   REMARKS
ABERDEEN       CLOUDY    25  25 100 CALM      30.06S
WATERTOWN      CLOUDY    26  26 100 S3        30.04R FOG
BROOKINGS      CLOUDY    27  26  96 N7        30.04F FOG     WCI  19
SISSETON         N/A     25  24  96 S3        30.05F
$$

SDZ017-020-022-023-036>040-048>070-171000-
SOUTHEAST SOUTH DAKOTA

CITY           SKY/WX    TMP DP  RH WIND       PRES   REMARKS
SIOUX FALLS    CLOUDY    25  25 100 N7        30.03S WCI  17
HURON          FOG       26  26 100 CALM      30.07R VSB 3/4
CHAMBERLAIN    CLOUDY    33  33 100 CALM      30.05S
MITCHELL       FOG       27  27 100 N3        30.06S VSB 1/2
YANKTON        CLOUDY    25  24  96 N3        30.06R
$$

ABBREVIATIONS USED IN REMARKS
   TC - TEMPERATURE IN CELSIUS
  WCI - WIND CHILL INDEX
   HX - HEAT INDEX
  VSB - VISIBILITY





USA.gov is the U.S. government's official web portal to all federal, state and local government web resources and services.